NOAA 16 DEB, 41083

Orbit data source: Space-Track

NOAA 16 DEB, 41083 is space debris in SSO originally from a launch on Thu, 21 Sep 2000 UTC launched from the Air Force Western Test Range (AFWTR). Debris objects in space refer to the collection of defunct objects orbiting the Earth. Examples of debris include non-operational satellites, rocket bodies, and fragments generated from explosions, collisions, or faulty payload assembly.

Loading next visibility...
Identifier
41083, 2000-055AS
Orbit
SSO
Country
Flag of USUS
Related business
Manufacturer
Unknown
Mission
Spacecraft
Bus & Motor
Unknown
Mass
Unknown
Launch date (UTC)
2000-09-21 (26 years ago)
Launch vehicle
Unknown
Launch site
Air Force Western Test Range (AFWTR)
Object type
Payload
Rocket body
Debris
Shape & HBR
Unknown shape, 0.2 m
Radar Cross Section
Small (<0.1 m²)

Expand to show TLE details & history
Last TLE update: 5 hours ago

TLE from 5 hours ago
0 NOAA 16 DEB
1 41083U 00055AS  26127.95759679  .00000224  00000-0  23891-3 0  9995
2 41083  99.0055  18.1868 0203302 296.4048  61.6364 13.75332681523703
Epoch: 2026-05-07T22:58Z
TLE epoch observation values (Epoch: 2026-05-07T22:58:56.362Z)
Latitude
-0.00003°
Longitude
167.65568°
Altitude
914.639 km
Speed
7.429 km/s
True Right ascension
01h 12m 44s
True Declination
0° 00' 00"
Sunlit
Object was in daylight at epoch
Visualization orbit readout
Latitude
Unknown
Longitude
Unknown
Altitude
Unknown
Speed
Unknown
Apparent Right ascension
Unknown
Apparent Declination
Unknown
Sunlit
N/A
Visualization observer readout
Local Sidereal Time
11:59:21
Azimuth
Unknown
Elevation
Unknown
Doppler factor
Unknown
Orbital elements
Apogee altitude
1,127.265 km
Perigee altitude
828.173 km
Semi-major axis
7,355.856 km
Eccentricity
0.02033
Inclination
99.0055°
RAAN
18.1868°
Arg. of periapsis
296.4048°
True anomaly
63.71098°
Mean anomaly
61.6364°
Eccentric anomaly
62.67122°
Mean motion
3.44028 °/min
Orbital period
104.64 mins
BSTAR
0.00023891
Loading maneuver chart data...
Computing Atmospheric mass density...
Loading historical data...
Loading historical data...
Loading historical data...
Loading historical data...
Loading historical data...
Loading historical data...
Loading historical data...

Documentation

Showing up to 5 results
|